| time (UTC) | temp F | wind direction | speed MPH | gust MPH | rain 1hr in | rain 24hr in | rain mn in | humidity % | barometer mb |
| 20260902181758 | 83 | 257 | 2.0 | 5.0 | 0.00 | 0.00 | 0.00 | 25 | 1021.2 |
| 20260902181538 | 82 | 55 | 1.0 | 9.0 | 0.00 | 0.00 | 0.00 | 24 | 1021.9 |
| 20260902181258 | 83 | 169 | 3.0 | 8.0 | 0.00 | 0.00 | 0.00 | 26 | 1021.4 |
| 20260902180800 | 83 | 163 | 4.0 | 9.0 | 0.00 | 0.00 | 0.00 | 24 | 1021.4 |
| 20260902180259 | 83 | 179 | 3.0 | 9.0 | 0.00 | 0.00 | 0.00 | 24 | 1021.4 |
| 20260902180024 | 82 | 143 | 4.0 | 10.0 | 0.00 | 0.00 | 0.00 | 24 | 1022.2 |
| 20260902175800 | 83 | 317 | 4.0 | 9.0 | 0.00 | 0.00 | 0.00 | 25 | 1021.4 |
| 20260902175254 | 83 | 170 | 4.0 | 10.0 | 0.00 | 0.00 | 0.00 | 25 | 1021.5 |
| 20260902174748 | 83 | 172 | 2.0 | 10.0 | 0.00 | 0.00 | 0.00 | 26 | 1021.4 |
| 20260902174528 | 82 | 137 | 3.0 | 7.0 | 0.00 | 0.00 | 0.00 | 25 | 1022.4 |
| 20260902173736 | 82 | 56 | 2.0 | 6.0 | 0.00 | 0.00 | 0.00 | 28 | 1021.5 |
| 20260902173230 | 81 | 223 | 2.0 | 5.0 | 0.00 | 0.00 | 0.00 | 25 | 1021.5 |
| 20260902173005 | 80 | 258 | 1.0 | 6.0 | 0.00 | 0.00 | 0.00 | 26 | 1022.4 |
| 20260902172724 | 81 | 279 | 2.0 | 5.0 | 0.00 | 0.00 | 0.00 | 26 | 1021.5 |
| 20260902172218 | 82 | 264 | 2.0 | 5.0 | 0.00 | 0.00 | 0.00 | 27 | 1021.7 |
| 20260902171712 | 82 | 281 | 2.0 | 7.0 | 0.00 | 0.00 | 0.00 | 26 | 1021.8 |
| 20260902171512 | 81 | 29 | 0.0 | 9.0 | 0.00 | 0.00 | 0.00 | 26 | 1022.7 |
| 20260902170700 | 80 | 212 | 2.0 | 8.0 | 0.00 | 0.00 | 0.00 | 27 | 1021.9 |
| 20260902170154 | 80 | 278 | 3.0 | 10.0 | 0.00 | 0.00 | 0.00 | 27 | 1021.9 |
| 20260902170016 | 79 | 302 | 2.0 | 11.0 | 0.00 | 0.00 | 0.00 | 26 | 1022.7 |
| 20260902164637 | 81 | 0 | 2.0 | 8.0 | 0.00 | 0.00 | 0.00 | 29 | 1022.0 |
| 20260902164530 | 80 | 53 | 1.0 | 9.0 | 0.00 | 0.00 | 0.00 | 27 | 1022.8 |
| 20260902163624 | 80 | 236 | 3.0 | 11.0 | 0.00 | 0.00 | 0.00 | 26 | 1022.0 |
| 20260902163119 | 79 | 274 | 2.0 | 8.0 | 0.00 | 0.00 | 0.00 | 27 | 1022.0 |
| 20260902163031 | 79 | 269 | 2.0 | 6.0 | 0.00 | 0.00 | 0.00 | 27 | 1022.8 |
| 20260902162613 | 79 | 63 | 3.0 | 10.0 | 0.00 | 0.00 | 0.00 | 29 | 1022.0 |
| 20260902162107 | 78 | 160 | 4.0 | 11.0 | 0.00 | 0.00 | 0.00 | 28 | 1022.0 |
| 20260902161600 | 78 | 274 | 4.0 | 13.0 | 0.00 | 0.00 | 0.00 | 27 | 1022.1 |
| 20260902161508 | 78 | 281 | 2.0 | 14.0 | 0.00 | 0.00 | 0.00 | 27 | 1022.8 |
| 20260902161054 | 79 | 260 | 4.0 | 13.0 | 0.00 | 0.00 | 0.00 | 26 | 1022.1 |
| 20260902160550 | 79 | 302 | 3.0 | 8.0 | 0.00 | 0.00 | 0.00 | 29 | 1022.1 |
| 20260902160042 | 79 | 257 | 3.0 | 8.0 | 0.00 | 0.00 | 0.00 | 28 | 1022.3 |
| 20260902160017 | 79 | 148 | 2.0 | 9.0 | 0.00 | 0.00 | 0.00 | 27 | 1022.7 |
| 20260902155537 | 79 | 351 | 3.0 | 8.0 | 0.00 | 0.00 | 0.00 | 27 | 1022.3 |
| 20260902155030 | 79 | 271 | 2.0 | 8.0 | 0.00 | 0.00 | 0.00 | 27 | 1022.0 |
| 20260902154525 | 78 | 275 | 2.0 | 7.0 | 0.00 | 0.00 | 0.00 | 28 | 1022.6 |
| 20260902154018 | 78 | 312 | 2.0 | 6.0 | 0.00 | 0.00 | 0.00 | 28 | 1022.3 |
| 20260902153513 | 78 | 342 | 2.0 | 6.0 | 0.00 | 0.00 | 0.00 | 28 | 1022.3 |
| 20260902153026 | 77 | 298 | 2.0 | 7.0 | 0.00 | 0.00 | 0.00 | 28 | 1022.7 |
| 20260902153006 | 78 | 293 | 2.0 | 6.0 | 0.00 | 0.00 | 0.00 | 29 | 1022.3 |
| 20260902152502 | 77 | 281 | 3.0 | 7.0 | 0.00 | 0.00 | 0.00 | 29 | 1022.3 |
| 20260902151535 | 76 | 242 | 3.0 | 10.0 | 0.00 | 0.00 | 0.00 | 28 | 1022.9 |
| 20260902151449 | 76 | 266 | 3.0 | 9.0 | 0.00 | 0.00 | 0.00 | 29 | 1022.4 |
| 20260902150437 | 77 | 158 | 2.0 | 6.0 | 0.00 | 0.00 | 0.00 | 28 | 1022.3 |
| 20260902150014 | 76 | 272 | 1.0 | 7.0 | 0.00 | 0.00 | 0.00 | 29 | 1022.9 |
| 20260902145932 | 77 | 276 | 1.0 | 6.0 | 0.00 | 0.00 | 0.00 | 29 | 1022.3 |
| 20260902144932 | 76 | 265 | 1.0 | 3.0 | 0.00 | 0.00 | 0.00 | 29 | 1022.3 |
| 20260902144518 | 75 | 270 | 1.0 | 4.0 | 0.00 | 0.00 | 0.00 | 29 | 1022.9 |
| 20260902144432 | 75 | 265 | 1.0 | 4.0 | 0.00 | 0.00 | 0.00 | 30 | 1022.3 |
| 20260902143932 | 74 | 23 | 1.0 | 4.0 | 0.00 | 0.00 | 0.00 | 31 | 1022.3 |
| 20260902143026 | 74 | 290 | 1.0 | 4.0 | 0.00 | 0.00 | 0.00 | 33 | 1022.8 |
| 20260902142433 | 74 | 266 | 1.0 | 4.0 | 0.00 | 0.00 | 0.00 | 35 | 1022.3 |
| 20260902141930 | 74 | 296 | 1.0 | 4.0 | 0.00 | 0.00 | 0.00 | 32 | 1022.3 |
| 20260902141527 | 73 | 257 | 1.0 | 4.0 | 0.00 | 0.00 | 0.00 | 31 | 1022.7 |
| 20260902141430 | 74 | 347 | 0.0 | 4.0 | 0.00 | 0.00 | 0.00 | 31 | 1022.0 |
| 20260902140930 | 73 | 281 | 0.0 | 2.0 | 0.00 | 0.00 | 0.00 | 34 | 1022.0 |
| 20260902140431 | 72 | 285 | 1.0 | 5.0 | 0.00 | 0.00 | 0.00 | 36 | 1022.0 |
| 20260902140029 | 71 | 277 | 0.0 | 5.0 | 0.00 | 0.00 | 0.00 | 34 | 1022.6 |
| 20260902135929 | 71 | 301 | 1.0 | 5.0 | 0.00 | 0.00 | 0.00 | 34 | 1022.0 |
| 20260902135429 | 71 | 271 | 1.0 | 4.0 | 0.00 | 0.00 | 0.00 | 36 | 1022.0 |
| 20260902134515 | 70 | 276 | 0.0 | 4.0 | 0.00 | 0.00 | 0.00 | 35 | 1022.5 |
| 20260902134426 | 70 | 296 | 1.0 | 4.0 | 0.00 | 0.00 | 0.00 | 35 | 1021.9 |
| 20260902133920 | 69 | 305 | 1.0 | 4.0 | 0.00 | 0.00 | 0.00 | 36 | 1021.8 |
| 20260902133422 | 69 | 333 | 1.0 | 7.0 | 0.00 | 0.00 | 0.00 | 37 | 1021.8 |
| 20260902133021 | 68 | 313 | 0.0 | 8.0 | 0.00 | 0.00 | 0.00 | 36 | 1022.3 |
| 20260902132921 | 69 | 259 | 2.0 | 7.0 | 0.00 | 0.00 | 0.00 | 36 | 1021.8 |
| 20260902132422 | 68 | 298 | 2.0 | 6.0 | 0.00 | 0.00 | 0.00 | 36 | 1021.7 |
| 20260902131919 | 68 | 297 | 2.0 | 8.0 | 0.00 | 0.00 | 0.00 | 36 | 1021.5 |
| 20260902131530 | 67 | 242 | 1.0 | 9.0 | 0.00 | 0.00 | 0.00 | 36 | 1022.1 |
| 20260902131422 | 67 | 282 | 2.0 | 8.0 | 0.00 | 0.00 | 0.00 | 37 | 1021.5 |
| 20260902130921 | 67 | 271 | 2.0 | 6.0 | 0.00 | 0.00 | 0.00 | 37 | 1021.5 |
| 20260902130420 | 67 | 285 | 2.0 | 5.0 | 0.00 | 0.00 | 0.00 | 38 | 1021.5 |
| 20260902130032 | 66 | 317 | 1.0 | 7.0 | 0.00 | 0.00 | 0.00 | 37 | 1022.0 |
| 20260902125920 | 66 | 311 | 2.0 | 6.0 | 0.00 | 0.00 | 0.00 | 38 | 1021.4 |
| 20260902125416 | 66 | 320 | 2.0 | 6.0 | 0.00 | 0.00 | 0.00 | 37 | 1021.3 |
| 20260902124916 | 66 | 295 | 2.0 | 6.0 | 0.00 | 0.00 | 0.00 | 37 | 1021.4 |
| 20260902124533 | 65 | 306 | 1.0 | 7.0 | 0.00 | 0.00 | 0.00 | 37 | 1021.9 |
| 20260902124418 | 66 | 330 | 1.0 | 6.0 | 0.00 | 0.00 | 0.00 | 37 | 1021.4 |
| 20260902123917 | 66 | 326 | 1.0 | 6.0 | 0.00 | 0.00 | 0.00 | 37 | 1021.3 |
| 20260902123417 | 66 | 283 | 2.0 | 8.0 | 0.00 | 0.00 | 0.00 | 37 | 1021.3 |
| 20260902123020 | 65 | 288 | 3.0 | 9.0 | 0.00 | 0.00 | 0.00 | 36 | 1021.8 |
| 20260902122916 | 66 | 343 | 2.0 | 8.0 | 0.00 | 0.00 | 0.00 | 36 | 1021.2 |
| 20260902122417 | 66 | 308 | 2.0 | 5.0 | 0.00 | 0.00 | 0.00 | 37 | 1021.0 |
| 20260902121917 | 66 | 297 | 1.0 | 4.0 | 0.00 | 0.00 | 0.00 | 37 | 1021.0 |
| 20260902121524 | 65 | 244 | 1.0 | 4.0 | 0.00 | 0.00 | 0.00 | 37 | 1021.6 |
| 20260902121417 | 66 | 339 | 1.0 | 5.0 | 0.00 | 0.00 | 0.00 | 37 | 1021.0 |
| 20260902120415 | 66 | 331 | 2.0 | 7.0 | 0.00 | 0.00 | 0.00 | 38 | 1020.9 |
| 20260902120028 | 65 | 333 | 1.0 | 8.0 | 0.00 | 0.00 | 0.00 | 38 | 1021.4 |
| 20260902115916 | 65 | 313 | 1.0 | 7.0 | 0.00 | 0.00 | 0.00 | 38 | 1020.8 |
| 20260902115417 | 65 | 329 | 1.0 | 5.0 | 0.00 | 0.00 | 0.00 | 40 | 1020.7 |
| 20260902114530 | 64 | 323 | 0.0 | 8.0 | 0.00 | 0.00 | 0.00 | 40 | 1021.1 |
| 20260902113917 | 65 | 266 | 2.0 | 7.0 | 0.00 | 0.00 | 0.00 | 42 | 1020.6 |
| 20260902113417 | 64 | 357 | 2.0 | 7.0 | 0.00 | 0.00 | 0.00 | 43 | 1020.6 |
| 20260902113032 | 63 | 315 | 1.0 | 5.0 | 0.00 | 0.00 | 0.00 | 44 | 1021.0 |
| 20260902112917 | 63 | 328 | 2.0 | 5.0 | 0.00 | 0.00 | 0.00 | 45 | 1020.6 |
| 20260902112417 | 62 | 335 | 1.0 | 5.0 | 0.00 | 0.00 | 0.00 | 47 | 1020.6 |
| 20260902111914 | 62 | 317 | 1.0 | 3.0 | 0.00 | 0.00 | 0.00 | 49 | 1020.7 |
| 20260902111523 | 62 | 324 | 0.0 | 3.0 | 0.00 | 0.00 | 0.00 | 50 | 1021.3 |
| 20260902111415 | 62 | 330 | 1.0 | 3.0 | 0.00 | 0.00 | 0.00 | 50 | 1020.6 |
| 20260902110912 | 62 | 327 | 0.0 | 2.0 | 0.00 | 0.00 | 0.00 | 50 | 1020.7 |
| 20260902110413 | 62 | 330 | 1.0 | 3.0 | 0.00 | 0.00 | 0.00 | 50 | 1020.7 |
| 20260902110037 | 62 | 329 | 0.0 | 3.0 | 0.00 | 0.00 | 0.00 | 50 | 1021.2 |
| 20260902105910 | 62 | 326 | 1.0 | 3.0 | 0.00 | 0.00 | 0.00 | 50 | 1020.6 |
| 20260902104551 | 62 | 325 | 1.0 | 3.0 | 0.00 | 0.00 | 0.00 | 51 | 1021.1 |
| 20260902104411 | 63 | 333 | 0.0 | 2.0 | 0.00 | 0.00 | 0.00 | 52 | 1020.7 |
| 20260902103909 | 63 | 337 | 0.0 | 2.0 | 0.00 | 0.00 | 0.00 | 51 | 1020.6 |
| 20260902103047 | 64 | 333 | 0.0 | 10.0 | 0.00 | 0.00 | 0.00 | 49 | 1021.2 |
| 20260902102909 | 64 | 339 | 1.0 | 9.0 | 0.00 | 0.00 | 0.00 | 50 | 1020.7 |
| 20260902101910 | 64 | 325 | 2.0 | 8.0 | 0.00 | 0.00 | 0.00 | 52 | 1020.4 |
| 20260902101532 | 64 | 342 | 1.0 | 6.0 | 0.00 | 0.00 | 0.00 | 51 | 1021.0 |
| 20260902101410 | 64 | 327 | 2.0 | 6.0 | 0.00 | 0.00 | 0.00 | 52 | 1020.4 |
| 20260902100902 | 64 | 310 | 2.0 | 6.0 | 0.00 | 0.00 | 0.00 | 52 | 1020.4 |
| 20260902100355 | 63 | 330 | 2.0 | 5.0 | 0.00 | 0.00 | 0.00 | 54 | 1020.4 |
| 20260902100024 | 62 | 341 | 2.0 | 6.0 | 0.00 | 0.00 | 0.00 | 56 | 1021.1 |
| 20260902095853 | 62 | 320 | 2.0 | 6.0 | 0.00 | 0.00 | 0.00 | 58 | 1020.6 |
| 20260902095352 | 60 | 319 | 2.0 | 6.0 | 0.00 | 0.00 | 0.00 | 62 | 1020.6 |
| 20260902094852 | 58 | 318 | 1.0 | 4.0 | 0.00 | 0.00 | 0.00 | 67 | 1020.6 |
| 20260902094528 | 57 | 315 | 1.0 | 4.0 | 0.00 | 0.00 | 0.00 | 71 | 1021.1 |
| 20260902094353 | 57 | 338 | 0.0 | 4.0 | 0.00 | 0.00 | 0.00 | 73 | 1020.6 |
| 20260902093852 | 56 | 331 | 0.0 | 1.0 | 0.00 | 0.00 | 0.00 | 81 | 1020.7 |
| 20260902093350 | 56 | 335 | 0.0 | 0.0 | 0.00 | 0.00 | 0.00 | 82 | 1020.7 |
| 20260902093031 | 56 | 329 | 0.0 | 0.0 | 0.00 | 0.00 | 0.00 | 82 | 1021.1 |
| 20260902092849 | 56 | 335 | 0.0 | 0.0 | 0.00 | 0.00 | 0.00 | 82 | 1020.6 |
| 20260902091849 | 56 | 335 | 0.0 | 0.0 | 0.00 | 0.00 | 0.00 | 82 | 1020.7 |
| 20260902091533 | 56 | 329 | 0.0 | 1.0 | 0.00 | 0.00 | 0.00 | 81 | 1021.3 |
| 20260902091350 | 57 | 335 | 0.0 | 1.0 | 0.00 | 0.00 | 0.00 | 82 | 1020.7 |
| 20260902090850 | 57 | 335 | 0.0 | 2.0 | 0.00 | 0.00 | 0.00 | 82 | 1020.7 |
| 20260902090005 | 56 | 329 | 0.0 | 2.0 | 0.00 | 0.00 | 0.00 | 82 | 1021.3 |
| 20260902085850 | 56 | 338 | 0.0 | 2.0 | 0.00 | 0.00 | 0.00 | 83 | 1020.8 |
| 20260902085351 | 56 | 333 | 0.0 | 2.0 | 0.00 | 0.00 | 0.00 | 83 | 1020.8 |
| 20260902084850 | 56 | 333 | 0.0 | 0.0 | 0.00 | 0.00 | 0.00 | 83 | 1020.8 |
| 20260902084504 | 56 | 327 | 0.0 | 0.0 | 0.00 | 0.00 | 0.00 | 82 | 1021.3 |
| 20260902084346 | 56 | 333 | 0.0 | 0.0 | 0.00 | 0.00 | 0.00 | 83 | 1020.9 |
| 20260902083343 | 56 | 333 | 0.0 | 0.0 | 0.00 | 0.00 | 0.00 | 82 | 1020.9 |
| 20260902083006 | 56 | 327 | 0.0 | 0.0 | 0.00 | 0.00 | 0.00 | 81 | 1021.5 |
| 20260902082844 | 57 | 333 | 0.0 | 0.0 | 0.00 | 0.00 | 0.00 | 81 | 1020.9 |
| 20260902082343 | 57 | 333 | 0.0 | 0.0 | 0.00 | 0.00 | 0.00 | 81 | 1020.9 |
| 20260902081845 | 57 | 333 | 0.0 | 0.0 | 0.00 | 0.00 | 0.00 | 81 | 1020.9 |
| 20260902081509 | 56 | 327 | 0.0 | 0.0 | 0.00 | 0.00 | 0.00 | 81 | 1021.5 |
| 20260902081342 | 57 | 333 | 0.0 | 0.0 | 0.00 | 0.00 | 0.00 | 81 | 1020.9 |
| 20260902080840 | 57 | 333 | 0.0 | 0.0 | 0.00 | 0.00 | 0.00 | 80 | 1021.0 |
| 20260902080341 | 57 | 333 | 0.0 | 0.0 | 0.00 | 0.00 | 0.00 | 81 | 1021.0 |
| 20260902080020 | 57 | 327 | 0.0 | 1.0 | 0.00 | 0.00 | 0.00 | 80 | 1021.6 |
| 20260902075841 | 57 | 333 | 0.0 | 1.0 | 0.00 | 0.00 | 0.00 | 80 | 1021.0 |
| 20260902075339 | 57 | 333 | 0.0 | 1.0 | 0.00 | 0.00 | 0.00 | 80 | 1021.0 |
| 20260902074835 | 58 | 333 | 1.0 | 3.0 | 0.00 | 0.00 | 0.00 | 78 | 1021.0 |
| 20260902074514 | 57 | 322 | 0.0 | 3.0 | 0.00 | 0.00 | 0.00 | 78 | 1021.6 |
| 20260902074336 | 58 | 328 | 1.0 | 3.0 | 0.00 | 0.00 | 0.00 | 80 | 1021.0 |
| 20260902073836 | 57 | 333 | 0.0 | 3.0 | 0.00 | 0.00 | 0.00 | 81 | 1021.0 |
| 20260902073336 | 57 | 331 | 0.0 | 1.0 | 0.00 | 0.00 | 0.00 | 80 | 1021.2 |
| 20260902073004 | 57 | 326 | 0.0 | 1.0 | 0.00 | 0.00 | 0.00 | 78 | 1021.7 |
| 20260902072837 | 58 | 332 | 0.0 | 0.0 | 0.00 | 0.00 | 0.00 | 79 | 1021.2 |
| 20260902072335 | 58 | 332 | 0.0 | 0.0 | 0.00 | 0.00 | 0.00 | 78 | 1021.2 |
| 20260902071832 | 58 | 332 | 0.0 | 1.0 | 0.00 | 0.00 | 0.00 | 77 | 1021.2 |
| 20260902071507 | 58 | 326 | 0.0 | 2.0 | 0.00 | 0.00 | 0.00 | 76 | 1021.6 |
| 20260902071330 | 59 | 332 | 0.0 | 2.0 | 0.00 | 0.00 | 0.00 | 77 | 1021.2 |
| 20260902070828 | 58 | 332 | 0.0 | 2.0 | 0.00 | 0.00 | 0.00 | 78 | 1021.2 |
| 20260902070022 | 58 | 326 | 0.0 | 2.0 | 0.00 | 0.00 | 0.00 | 77 | 1021.6 |
| 20260902065826 | 59 | 332 | 0.0 | 2.0 | 0.00 | 0.00 | 0.00 | 78 | 1021.0 |
| 20260902064820 | 59 | 332 | 0.0 | 1.0 | 0.00 | 0.00 | 0.00 | 77 | 1021.3 |
| 20260902064519 | 59 | 326 | 0.0 | 1.0 | 0.00 | 0.00 | 0.00 | 77 | 1021.9 |
| 20260902064319 | 59 | 332 | 0.0 | 1.0 | 0.00 | 0.00 | 0.00 | 77 | 1021.4 |
| 20260902063818 | 59 | 332 | 0.0 | 1.0 | 0.00 | 0.00 | 0.00 | 77 | 1021.3 |
| 20260902063317 | 59 | 332 | 0.0 | 1.0 | 0.00 | 0.00 | 0.00 | 76 | 1021.4 |
| 20260902063041 | 59 | 326 | 0.0 | 1.0 | 0.00 | 0.00 | 0.00 | 74 | 1021.9 |
| 20260902062816 | 60 | 332 | 0.0 | 1.0 | 0.00 | 0.00 | 0.00 | 74 | 1021.4 |
| 20260902062315 | 60 | 332 | 1.0 | 2.0 | 0.00 | 0.00 | 0.00 | 73 | 1021.3 |
| 20260902061814 | 61 | 332 | 1.0 | 2.0 | 0.00 | 0.00 | 0.00 | 74 | 1021.4 |
| 20260902061507 | 60 | 326 | 1.0 | 2.0 | 0.00 | 0.00 | 0.00 | 73 | 1022.1 |
| 20260902061315 | 60 | 332 | 1.0 | 2.0 | 0.00 | 0.00 | 0.00 | 74 | 1021.4 |
| 20260902060811 | 60 | 331 | 0.0 | 2.0 | 0.00 | 0.00 | 0.00 | 74 | 1021.4 |
| 20260902060310 | 60 | 332 | 0.0 | 1.0 | 0.00 | 0.00 | 0.00 | 74 | 1021.4 |
| 20260902060010 | 60 | 326 | 0.0 | 1.0 | 0.00 | 0.00 | 0.00 | 74 | 1021.9 |
| 20260902055808 | 60 | 332 | 0.0 | 1.0 | 0.00 | 0.00 | 0.00 | 75 | 1021.3 |
| 20260902055307 | 60 | 332 | 0.0 | 0.0 | 0.00 | 0.00 | 0.00 | 75 | 1021.2 |
| 20260902054808 | 60 | 332 | 0.0 | 0.0 | 0.00 | 0.00 | 0.00 | 74 | 1021.2 |
| 20260902054516 | 60 | 326 | 0.0 | 0.0 | 0.00 | 0.00 | 0.00 | 72 | 1021.9 |
| 20260902054307 | 61 | 332 | 0.0 | 0.0 | 0.00 | 0.00 | 0.00 | 73 | 1021.3 |
| 20260902053808 | 61 | 332 | 0.0 | 0.0 | 0.00 | 0.00 | 0.00 | 72 | 1021.4 |
| 20260902053301 | 61 | 332 | 0.0 | 3.0 | 0.00 | 0.00 | 0.00 | 72 | 1021.3 |
| 20260902053022 | 61 | 326 | 0.0 | 3.0 | 0.00 | 0.00 | 0.00 | 71 | 1022.1 |
| 20260902052800 | 61 | 332 | 0.0 | 3.0 | 0.00 | 0.00 | 0.00 | 72 | 1021.4 |
| 20260902052306 | 61 | 91 | 0.0 | 0.0 | 0.00 | 0.00 | 0.00 | 71 | 1021.4 |
| 20260902051802 | 61 | 91 | 0.0 | 0.0 | 0.00 | 0.00 | 0.00 | 71 | 1021.4 |
| 20260902051523 | 61 | 95 | 0.0 | 0.0 | 0.00 | 0.00 | 0.00 | 70 | 1022.1 |
| 20260902051301 | 62 | 91 | 0.0 | 0.0 | 0.00 | 0.00 | 0.00 | 70 | 1021.4 |
| 20260902050301 | 63 | 91 | 0.0 | 0.0 | 0.00 | 0.00 | 0.00 | 68 | 1021.3 |
| 20260902050008 | 63 | 95 | 0.0 | 0.0 | 0.00 | 0.00 | 0.00 | 66 | 1022.1 |
| 20260902045801 | 64 | 91 | 0.0 | 0.0 | 0.00 | 0.00 | 0.00 | 66 | 1021.5 |
| 20260902045306 | 64 | 91 | 0.0 | 0.0 | 0.00 | 0.00 | 0.00 | 66 | 1021.5 |
| 20260902044802 | 65 | 92 | 0.0 | 0.0 | 0.00 | 0.00 | 0.00 | 65 | 1021.7 |
| 20260902044527 | 64 | 95 | 0.0 | 0.0 | 0.00 | 0.00 | 0.00 | 64 | 1022.4 |
| 20260902044300 | 65 | 91 | 0.0 | 0.0 | 0.00 | 0.00 | 0.00 | 64 | 1021.8 |
| 20260902043300 | 65 | 91 | 0.0 | 0.0 | 0.00 | 0.00 | 0.00 | 63 | 1021.9 |
| 20260902043020 | 65 | 95 | 0.0 | 0.0 | 0.00 | 0.00 | 0.00 | 62 | 1022.5 |
| 20260902042800 | 66 | 91 | 0.0 | 2.0 | 0.00 | 0.00 | 0.00 | 62 | 1022.0 |
| 20260902042308 | 66 | 91 | 0.0 | 2.0 | 0.00 | 0.00 | 0.00 | 62 | 1022.0 |
| 20260902041802 | 66 | 129 | 0.0 | 2.0 | 0.00 | 0.00 | 0.00 | 61 | 1022.0 |
| 20260902041532 | 66 | 131 | 0.0 | 2.0 | 0.00 | 0.00 | 0.00 | 61 | 1022.7 |
| 20260902041301 | 67 | 129 | 1.0 | 3.0 | 0.00 | 0.00 | 0.00 | 61 | 1022.0 |
| 20260902040801 | 67 | 131 | 1.0 | 3.0 | 0.00 | 0.00 | 0.00 | 60 | 1022.0 |
| 20260902040301 | 67 | 140 | 1.0 | 3.0 | 0.00 | 0.00 | 0.00 | 60 | 1021.9 |
| 20260902040029 | 67 | 136 | 0.0 | 4.0 | 0.00 | 0.00 | 0.00 | 59 | 1022.8 |
| 20260902035802 | 67 | 125 | 1.0 | 5.0 | 0.00 | 0.00 | 0.00 | 59 | 1022.1 |
| 20260902035305 | 67 | 170 | 2.0 | 5.0 | 0.00 | 0.00 | 0.00 | 58 | 1022.3 |
| 20260902034800 | 67 | 146 | 2.0 | 5.0 | 0.00 | 0.00 | 0.00 | 58 | 1022.1 |
| 20260902034511 | 67 | 151 | 1.0 | 7.0 | 0.00 | 0.00 | 0.00 | 57 | 1022.7 |
| 20260902034259 | 68 | 167 | 2.0 | 7.0 | 0.00 | 0.00 | 0.00 | 57 | 1022.0 |
| 20260902033800 | 68 | 122 | 2.0 | 7.0 | 0.00 | 0.00 | 0.00 | 57 | 1022.1 |
| 20260902033259 | 68 | 124 | 1.0 | 4.0 | 0.00 | 0.00 | 0.00 | 56 | 1022.0 |
| 20260902033015 | 67 | 146 | 1.0 | 5.0 | 0.00 | 0.00 | 0.00 | 55 | 1022.7 |
| 20260902032756 | 68 | 147 | 1.0 | 4.0 | 0.00 | 0.00 | 0.00 | 55 | 1021.9 |
| 20260902032258 | 68 | 154 | 1.0 | 4.0 | 0.00 | 0.00 | 0.00 | 55 | 1021.8 |
| 20260902031757 | 68 | 158 | 1.0 | 4.0 | 0.00 | 0.00 | 0.00 | 55 | 1021.8 |
| 20260902031539 | 68 | 155 | 1.0 | 5.0 | 0.00 | 0.00 | 0.00 | 54 | 1022.6 |
| 20260902031251 | 68 | 143 | 1.0 | 4.0 | 0.00 | 0.00 | 0.00 | 54 | 1021.8 |
| 20260902030746 | 68 | 168 | 2.0 | 5.0 | 0.00 | 0.00 | 0.00 | 53 | 1021.8 |
| 20260902030028 | 68 | 165 | 1.0 | 5.0 | 0.00 | 0.00 | 0.00 | 52 | 1022.7 |
| 20260902025733 | 68 | 164 | 2.0 | 5.0 | 0.00 | 0.00 | 0.00 | 53 | 1021.8 |
| 20260902025227 | 69 | 141 | 2.0 | 5.0 | 0.00 | 0.00 | 0.00 | 52 | 1021.8 |
| 20260902024720 | 69 | 151 | 2.0 | 4.0 | 0.00 | 0.00 | 0.00 | 52 | 1021.7 |
| 20260902024528 | 68 | 171 | 1.0 | 5.0 | 0.00 | 0.00 | 0.00 | 51 | 1022.5 |
| 20260902024215 | 69 | 160 | 1.0 | 4.0 | 0.00 | 0.00 | 0.00 | 51 | 1021.5 |
| 20260902023203 | 69 | 162 | 1.0 | 4.0 | 0.00 | 0.00 | 0.00 | 51 | 1021.4 |
| 20260902023022 | 69 | 159 | 1.0 | 4.0 | 0.00 | 0.00 | 0.00 | 51 | 1022.3 |
| 20260902022658 | 69 | 159 | 1.0 | 4.0 | 0.00 | 0.00 | 0.00 | 51 | 1021.3 |
| 20260902022151 | 69 | 179 | 1.0 | 5.0 | 0.00 | 0.00 | 0.00 | 51 | 1021.2 |
| 20260902021651 | 69 | 120 | 2.0 | 5.0 | 0.00 | 0.00 | 0.00 | 50 | 1020.9 |
| 20260902021523 | 69 | 128 | 2.0 | 6.0 | 0.00 | 0.00 | 0.00 | 50 | 1021.8 |
| 20260902021151 | 70 | 98 | 2.0 | 5.0 | 0.00 | 0.00 | 0.00 | 50 | 1020.8 |
| 20260902020652 | 70 | 117 | 2.0 | 5.0 | 0.00 | 0.00 | 0.00 | 50 | 1020.7 |
| 20260902020150 | 71 | 83 | 2.0 | 6.0 | 0.00 | 0.00 | 0.00 | 50 | 1020.6 |
| 20260902020025 | 70 | 136 | 2.0 | 7.0 | 0.00 | 0.00 | 0.00 | 49 | 1021.4 |
| 20260902015652 | 71 | 115 | 3.0 | 7.0 | 0.00 | 0.00 | 0.00 | 49 | 1020.6 |
| 20260902015154 | 71 | 127 | 3.0 | 7.0 | 0.00 | 0.00 | 0.00 | 49 | 1020.4 |
| 20260902014652 | 71 | 120 | 3.0 | 7.0 | 0.00 | 0.00 | 0.00 | 49 | 1020.4 |
| 20260902014533 | 71 | 140 | 3.0 | 8.0 | 0.00 | 0.00 | 0.00 | 48 | 1021.3 |
| 20260902014152 | 72 | 100 | 3.0 | 9.0 | 0.00 | 0.00 | 0.00 | 49 | 1020.4 |
| 20260902013651 | 72 | 150 | 5.0 | 10.0 | 0.00 | 0.00 | 0.00 | 48 | 1020.4 |
| 20260902013150 | 72 | 131 | 5.0 | 11.0 | 0.00 | 0.00 | 0.00 | 48 | 1020.3 |
| 20260902013031 | 72 | 100 | 4.0 | 12.0 | 0.00 | 0.00 | 0.00 | 47 | 1021.1 |
| 20260902012650 | 72 | 141 | 5.0 | 11.0 | 0.00 | 0.00 | 0.00 | 47 | 1020.3 |
| 20260902012151 | 73 | 118 | 5.0 | 13.0 | 0.00 | 0.00 | 0.00 | 47 | 1020.4 |
| 20260902011650 | 73 | 176 | 6.0 | 14.0 | 0.00 | 0.00 | 0.00 | 47 | 1020.4 |
| 20260902011522 | 73 | 167 | 6.0 | 16.0 | 0.00 | 0.00 | 0.00 | 46 | 1021.1 |
| 20260902011150 | 74 | 127 | 5.0 | 14.0 | 0.00 | 0.00 | 0.00 | 46 | 1020.3 |
| 20260902010652 | 74 | 127 | 6.0 | 16.0 | 0.00 | 0.00 | 0.00 | 46 | 1020.3 |
| 20260902010152 | 75 | 169 | 6.0 | 16.0 | 0.00 | 0.00 | 0.00 | 45 | 1020.3 |
| 20260902010024 | 74 | 183 | 8.0 | 18.0 | 0.00 | 0.00 | 0.00 | 44 | 1020.8 |
| 20260902005645 | 75 | 116 | 6.0 | 14.0 | 0.00 | 0.00 | 0.00 | 44 | 1020.2 |
| 20260902005139 | 76 | 168 | 6.0 | 14.0 | 0.00 | 0.00 | 0.00 | 42 | 1020.1 |
| 20260902004634 | 76 | 130 | 5.0 | 11.0 | 0.00 | 0.00 | 0.00 | 40 | 1019.9 |
| 20260902004528 | 75 | 146 | 6.0 | 12.0 | 0.00 | 0.00 | 0.00 | 39 | 1020.7 |
| 20260902004128 | 76 | 121 | 5.0 | 12.0 | 0.00 | 0.00 | 0.00 | 40 | 1019.9 |
| 20260902003622 | 76 | 139 | 4.0 | 12.0 | 0.00 | 0.00 | 0.00 | 39 | 1019.9 |
| 20260902003115 | 76 | 109 | 4.0 | 10.0 | 0.00 | 0.00 | 0.00 | 38 | 1019.9 |
| 20260902003034 | 76 | 157 | 4.0 | 11.0 | 0.00 | 0.00 | 0.00 | 37 | 1020.6 |
| 20260902002609 | 76 | 154 | 4.0 | 9.0 | 0.00 | 0.00 | 0.00 | 37 | 1019.9 |
| 20260902002103 | 76 | 149 | 4.0 | 8.0 | 0.00 | 0.00 | 0.00 | 36 | 1019.9 |
| 20260902001558 | 77 | 136 | 4.0 | 10.0 | 0.00 | 0.00 | 0.00 | 35 | 1019.8 |
| 20260902001515 | 76 | 194 | 3.0 | 11.0 | 0.00 | 0.00 | 0.00 | 35 | 1020.5 |
| 20260902001051 | 77 | 122 | 5.0 | 10.0 | 0.00 | 0.00 | 0.00 | 34 | 1019.8 |
| 20260902000545 | 78 | 110 | 5.0 | 12.0 | 0.00 | 0.00 | 0.00 | 34 | 1019.7 |
| 20260902000039 | 78 | 148 | 5.0 | 12.0 | 0.00 | 0.00 | 0.00 | 34 | 1019.9 |
| 20260902000023 | 77 | 120 | 5.0 | 14.0 | 0.00 | 0.00 | 0.00 | 33 | 1020.5 |
| 20260901235534 | 78 | 120 | 4.0 | 11.0 | 0.00 | 0.00 | 0.00 | 34 | 1019.9 |
| 20260901235027 | 78 | 132 | 5.0 | 12.0 | 0.00 | 0.00 | 0.00 | 34 | 1019.9 |
| 20260901234528 | 77 | 166 | 6.0 | 15.0 | 0.00 | 0.00 | 0.00 | 33 | 1020.6 |
| 20260901233509 | 79 | 129 | 3.0 | 10.0 | 0.00 | 0.00 | 0.00 | 32 | 1019.9 |
| 20260901233031 | 79 | 77 | 3.0 | 10.0 | 0.00 | 0.00 | 0.00 | 27 | 1020.6 |
| 20260901233003 | 80 | 68 | 3.0 | 9.0 | 0.00 | 0.00 | 0.00 | 28 | 1019.9 |
| 20260901232457 | 80 | 126 | 3.0 | 9.0 | 0.00 | 0.00 | 0.00 | 27 | 1019.8 |
| 20260901231537 | 79 | 136 | 3.0 | 10.0 | 0.00 | 0.00 | 0.00 | 27 | 1020.6 |
| 20260901230940 | 81 | 124 | 3.0 | 9.0 | 0.00 | 0.00 | 0.00 | 27 | 1019.9 |
| 20260901230433 | 82 | 188 | 2.0 | 6.0 | 0.00 | 0.00 | 0.00 | 27 | 1020.1 |
| 20260901230019 | 81 | 103 | 1.0 | 7.0 | 0.00 | 0.00 | 0.00 | 28 | 1020.7 |
| 20260901225927 | 82 | 129 | 3.0 | 6.0 | 0.00 | 0.00 | 0.00 | 26 | 1019.9 |
| 20260901224916 | 82 | 137 | 3.0 | 8.0 | 0.00 | 0.00 | 0.00 | 25 | 1019.8 |
| 20260901224526 | 82 | 54 | 1.0 | 7.0 | 0.00 | 0.00 | 0.00 | 25 | 1020.6 |
| 20260901224410 | 82 | 114 | 2.0 | 6.0 | 0.00 | 0.00 | 0.00 | 27 | 1019.9 |
| 20260901223357 | 83 | 86 | 1.0 | 7.0 | 0.00 | 0.00 | 0.00 | 27 | 1020.1 |
| 20260901223029 | 83 | 109 | 0.0 | 4.0 | 0.00 | 0.00 | 0.00 | 27 | 1020.9 |
| 20260901222851 | 83 | 309 | 1.0 | 5.0 | 0.00 | 0.00 | 0.00 | 27 | 1020.1 |
| 20260901221839 | 83 | 329 | 3.0 | 7.0 | 0.00 | 0.00 | 0.00 | 27 | 1020.2 |
| 20260901221533 | 82 | 207 | 3.0 | 9.0 | 0.00 | 0.00 | 0.00 | 27 | 1020.9 |
| 20260901221333 | 82 | 264 | 3.0 | 7.0 | 0.00 | 0.00 | 0.00 | 27 | 1020.2 |
| 20260901220827 | 82 | 148 | 3.0 | 9.0 | 0.00 | 0.00 | 0.00 | 27 | 1020.2 |
| 20260901220321 | 83 | 139 | 3.0 | 9.0 | 0.00 | 0.00 | 0.00 | 27 | 1020.3 |
| 20260901220034 | 82 | 126 | 3.0 | 10.0 | 0.00 | 0.00 | 0.00 | 27 | 1021.1 |
| 20260901215815 | 83 | 98 | 3.0 | 9.0 | 0.00 | 0.00 | 0.00 | 26 | 1020.2 |
| 20260901215310 | 83 | 154 | 3.0 | 6.0 | 0.00 | 0.00 | 0.00 | 27 | 1020.3 |
| 20260901214522 | 82 | 144 | 3.0 | 8.0 | 0.00 | 0.00 | 0.00 | 28 | 1021.1 |
| 20260901214257 | 83 | 115 | 1.0 | 7.0 | 0.00 | 0.00 | 0.00 | 29 | 1020.4 |
| 20260901213246 | 83 | 334 | 2.0 | 6.0 | 0.00 | 0.00 | 0.00 | 30 | 1020.4 |
| 20260901213029 | 82 | 73 | 1.0 | 12.0 | 0.00 | 0.00 | 0.00 | 28 | 1021.3 |
| 20260901212739 | 83 | 343 | 3.0 | 10.0 | 0.00 | 0.00 | 0.00 | 26 | 1020.6 |
| 20260901212234 | 83 | 224 | 3.0 | 10.0 | 0.00 | 0.00 | 0.00 | 27 | 1020.7 |
| 20260901211726 | 83 | 141 | 2.0 | 7.0 | 0.00 | 0.00 | 0.00 | 28 | 1020.7 |
| 20260901211532 | 83 | 126 | 2.0 | 8.0 | 0.00 | 0.00 | 0.00 | 27 | 1021.5 |
| 20260901211222 | 83 | 252 | 2.0 | 7.0 | 0.00 | 0.00 | 0.00 | 27 | 1020.8 |
| 20260901210714 | 82 | 298 | 3.0 | 8.0 | 0.00 | 0.00 | 0.00 | 28 | 1020.8 |
| 20260901210209 | 82 | 188 | 3.0 | 8.0 | 0.00 | 0.00 | 0.00 | 29 | 1021.0 |
| 20260901210033 | 82 | 111 | 4.0 | 9.0 | 0.00 | 0.00 | 0.00 | 28 | 1021.7 |
| 20260901205702 | 82 | 77 | 2.0 | 8.0 | 0.00 | 0.00 | 0.00 | 27 | 1020.9 |
| 20260901205158 | 82 | 120 | 2.0 | 9.0 | 0.00 | 0.00 | 0.00 | 31 | 1020.9 |
| 20260901204533 | 81 | 164 | 4.0 | 10.0 | 0.00 | 0.00 | 0.00 | 28 | 1021.8 |
| 20260901204146 | 82 | 103 | 3.0 | 9.0 | 0.00 | 0.00 | 0.00 | 29 | 1021.3 |
| 20260901203639 | 82 | 267 | 3.0 | 9.0 | 0.00 | 0.00 | 0.00 | 28 | 1021.3 |
| 20260901203134 | 82 | 268 | 3.0 | 8.0 | 0.00 | 0.00 | 0.00 | 28 | 1021.4 |
| 20260901203023 | 82 | 180 | 3.0 | 9.0 | 0.00 | 0.00 | 0.00 | 28 | 1022.0 |
| 20260901202627 | 82 | 306 | 2.0 | 8.0 | 0.00 | 0.00 | 0.00 | 28 | 1021.4 |
| 20260901201615 | 81 | 281 | 2.0 | 7.0 | 0.00 | 0.00 | 0.00 | 30 | 1021.4 |
| 20260901201527 | 80 | 78 | 0.0 | 8.0 | 0.00 | 0.00 | 0.00 | 29 | 1022.2 |
| 20260901201109 | 80 | 113 | 3.0 | 8.0 | 0.00 | 0.00 | 0.00 | 29 | 1021.4 |
| 20260901200602 | 80 | 302 | 3.0 | 8.0 | 0.00 | 0.00 | 0.00 | 28 | 1021.5 |
| 20260901200058 | 80 | 115 | 3.0 | 7.0 | 0.00 | 0.00 | 0.00 | 31 | 1021.5 |
| 20260901200015 | 80 | 111 | 3.0 | 8.0 | 0.00 | 0.00 | 0.00 | 31 | 1022.4 |
| 20260901195550 | 81 | 139 | 3.0 | 8.0 | 0.00 | 0.00 | 0.00 | 30 | 1021.7 |
| 20260901195044 | 80 | 174 | 2.0 | 8.0 | 0.00 | 0.00 | 0.00 | 34 | 1021.7 |
| 20260901194515 | 79 | 82 | 1.0 | 7.0 | 0.00 | 0.00 | 0.00 | 34 | 1022.6 |
| 20260901194033 | 79 | 174 | 3.0 | 7.0 | 0.00 | 0.00 | 0.00 | 30 | 1021.8 |
| 20260901193528 | 79 | 110 | 2.0 | 7.0 | 0.00 | 0.00 | 0.00 | 35 | 1021.8 |
| 20260901193022 | 78 | 121 | 2.0 | 6.0 | 0.00 | 0.00 | 0.00 | 35 | 1021.9 |
| 20260901193004 | 78 | 157 | 1.0 | 9.0 | 0.00 | 0.00 | 0.00 | 35 | 1022.8 |
| 20260901192518 | 78 | 110 | 3.0 | 8.0 | 0.00 | 0.00 | 0.00 | 34 | 1022.0 |
| 20260901191517 | 79 | 79 | 2.0 | 7.0 | 0.00 | 0.00 | 0.00 | 38 | 1022.0 |
| 20260901191509 | 79 | 82 | 2.0 | 7.0 | 0.00 | 0.00 | 0.00 | 37 | 1022.8 |
| 20260901191016 | 79 | 97 | 2.0 | 6.0 | 0.00 | 0.00 | 0.00 | 36 | 1022.1 |
| 20260901190015 | 79 | 157 | 3.0 | 8.0 | 0.00 | 0.00 | 0.00 | 35 | 1022.1 |
| 20260901190008 | 79 | 108 | 2.0 | 8.0 | 0.00 | 0.00 | 0.00 | 35 | 1023.0 |
| 20260901185515 | 79 | 105 | 1.0 | 8.0 | 0.00 | 0.00 | 0.00 | 35 | 1022.3 |
| 20260901185014 | 79 | 271 | 2.0 | 8.0 | 0.00 | 0.00 | 0.00 | 36 | 1022.3 |
| 20260901184511 | 78 | 144 | 2.0 | 10.0 | 0.00 | 0.00 | 0.00 | 36 | 1023.1 |
| 20260901184012 | 78 | 136 | 3.0 | 9.0 | 0.00 | 0.00 | 0.00 | 36 | 1022.5 |
| 20260901183023 | 78 | 182 | 0.0 | 8.0 | 0.00 | 0.00 | 0.00 | 36 | 1023.2 |
| 20260901183013 | 78 | 153 | 2.0 | 7.0 | 0.00 | 0.00 | 0.00 | 36 | 1022.5 |